Tracking 29892 objects as of 21-Nov-2024
HD Live streaming from Space Station
objects crossing your sky now

STARLINK-6379

Track STARLINK-6379 now!
10-day predictions
STARLINK-6379 is classified as:


NORAD ID: 57343
Int'l Code: 2023-099R
Perigee: 565.5 km
Apogee: 566.8 km
Inclination: 43.0 °
Period: 95.8 minutes
Semi major axis: 6937 km
RCS: Unknown
Launch date: July 16, 2023
Source: United States (US)
Launch site: AIR FORCE EASTERN TEST RANGE (AFETR)
Your satellite tracking list
Your tracking list is empty




NASA's NSSDC Master Catalog

Two Line Element Set (TLE):
1 57343U 23099R   24325.34545761  .00002336  00000-0  18786-3 0  9993
2 57343  43.0032 306.3623 0000910 259.0637 101.0103 15.02550909 74767
Source of the keplerian elements: AFSPC